CAPE
0 0 0 0 0 0 0 0 0 0 0 0 0 0 0 0 0 0 0 0 0 0 0 0 0 0 0 0 0 0 0 7 14 0 0 0 0 0 2 32 26 18 0 0
0 0 0 0 0 0 0 0 0 0 0 0 0 0 0 0 0 0 0 0 0 0 0 0 0 0 0 0 0 0 11 6 25 0 2 1 0 0 11 40 37 36 36 50
0 0 0 0 0 0 0 0 0 0 0 0 0 0 0 0 0 0 0 0 0 0 0 0 0 0 0 0 0 4 29 28 0 0 0 0 0 6 8 23 20 10 6 17
0 0 0 0 0 0 0 0 0 0 0 0 0 0 0 0 0 0 0 0 0 0 0 0 0 0 0 0 0 11 13 2 0 0 0 19 59 23 2 0 0 1 3 3
0 0 0 0 0 0 0 0 0 0 0 0 0 0 0 0 0 0 0 0 0 0 0 0 0 0 0 0 0 0 1 0 0 0 0 74 2 0 0 0 0 3 29 38
0 0 0 0 0 0 0 0 0 0 0 0 0 0 0 0 0 0 0 0 0 0 0 0 0 0 0 0 0 0 0 0 0 8 0 0 0 0 0 0 0 2 7 38
0 0 0 0 0 0 0 0 0 0 0 0 0 0 0 0 0 0 0 0 0 0 0 0 0 0 0 0 0 0 0 0 0 0 0 0 0 0 0 0 0 0 2 5
0 0 0 0 0 0 0 0 0 0 0 0 0 0 0 0 0 0 0 0 0 0 0 0 0 0 0 0 0 0 0 0 0 0 0 0 0 0 0 0 4 0 0 0
0 0 0 0 0 0 0 0 0 0 0 0 0 0 0 0 0 0 0 0 0 0 0 0 0 0 0 0 0 0 0 0 0 0 0 0 0 0 0 0 0 0 0 0
0 0 0 0 0 0 0 0 0 0 0 0 0 0 0 0 0 0 0 0 0 0 0 0 0 0 0 0 0 0 0 0 0 0 0 3 8 8 9 0 1 0 0 0
0 0 0 0 0 0 0 0 0 0 0 0 0 0 0 0 0 0 0 0 0 0 0 0 0 0 0 0 0 0 0 0 0 0 0 8 39 50 47 0 0 3 0 4
0 0 0 0 0 0 0 0 0 0 0 0 0 0 0 0 0 0 0 0 0 0 0 0 0 0 0 0 0 0 0 0 0 0 0 3 48 52 18 0 0 0 0 0
0 0 0 0 0 0 0 0 0 0 0 0 0 0 0 0 0 0 0 0 0 0 0 0 0 0 0 0 0 0 0 0 0 0 0 9 1 10 45 1 0 3 3 23
0 0 0 0 0 0 0 0 0 0 0 0 0 0 0 0 0 0 0 0 0 0 0 0 0 0 0 0 0 0 0 0 0 0 0 0 12 0 2 0 0 0 16 49
0 0 0 0 0 0 0 0 0 0 0 0 0 0 0 0 0 12 22 0 0 0 0 0 0 0 0 0 0 0 0 0 0 0 0 0 0 1 9 0 0 0 13 61
0 0 0 0 0 0 0 0 0 0 0 0 0 0 0 0 3 14 7 0 0 0 0 0 0 0 0 0 0 0 0 0 0 0 0 0 0 4 10 0 0 12 22 41
0 0 0 0 0 0 0 0 0 0 0 0 0 0 0 0 1 3 0 0 0 0 0 0 0 0 0 0 0 0 0 0 0 0 0 0 0 10 1 0 0 2 0 0
0 0 0 0 0 0 0 0 0 0 0 0 0 0 0 0 0 1 0 0 0 0 0 0 0 0 0 0 0 0 0 0 0 0 0 0 0 0 0 0 0 0 0 0
0 0 0 0 0 0 0 0 0 0 0 0 0 0 0 0 0 0 0 0 0 0 0 0 0 0 0 0 0 0 0 0 0 0 0 0 0 0 0 0 0 0 0 0
0 0 0 0 0 0 0 1 0 0 0 0 0 0 0 0 0 0 0 0 0 0 0 0 0 0 0 0 0 0 0 0 0 0 0 0 0 12 7 0 0 0 0 0
0 0 0 0 0 0 0 0 0 0 0 0 0 0 0 0 0 0 0 0 0 0 0 0 0 0 0 0 0 0 0 0 0 0 0 0 0 0 22 0 0 0 0 0
1 0 0 0 29 13 0 0 38 0 0 0 0 0 0 0 0 0 0 0 1 0 0 0 0 0 0 0 0 0 0 0 0 0 0 0 0 0 0 0 0 0 0 0
0 6 4 0 0 0 0 0 0 0 0 0 0 0 0 0 0 0 0 0 9 1 0 0 0 0 0 0 0 0 0 0 0 0 0 0 0 0 0 0 0 0 0 0
0 4 0 0 0 0 0 0 0 0 0 0 0 0 0 0 0 0 0 0 4 30 1 0 0 0 0 0 0 0 0 0 0 0 0 0 0 0 0 1 2 21 27 0
1 3 0 0 0 0 0 0 0 0 0 0 0 0 0 0 0 0 0 0 3 37 24 1 0 0 0 0 0 0 0 0 0 0 0 0 0 0 0 25 32 26 16 1
0 0 0 1 0 0 0 0 0 0 0 0 0 0 0 0 0 0 0 0 1 63 54 28 5 0 0 0 0 0 0 0 0 0 0 0 0 0 0 1 0 0 0 0
CIN
-0 -0 -0 -0 -0 -0 -0 -0 -0 -0 -0 -0 -0 -0 -0 -0 -0 -0 -0 -0 -0 -0 -0 -0 -0 -0 -0 -0 -0 -0 -0 -423 -352 -1 -0 -0 -0 -0 -30 -52 -49 -60 -35 -0
-0 -0 -0 -0 -0 -0 -0 -0 -0 -0 -0 -0 -0 -0 -0 -0 -0 -0 -0 -0 -0 -0 -0 -0 -0 -0 -0 -0 -0 -0 -421 -392 -318 -0 -41 -18 -0 -0 -85 -49 -42 -49 -43 -26
-0 -0 -0 -0 -0 -0 -0 -0 -0 -0 -0 -0 -0 -0 -0 -0 -0 -0 -0 -0 -0 -0 -0 -0 -0 -0 -0 -0 -0 -429 -377 -334 -34 -0 -0 -0 -0 -36 -55 -33 -40 -59 -50 -17
-0 -0 -0 -0 -0 -0 -0 -0 -0 -0 -0 -0 -0 -0 -0 -0 -0 -0 -0 -0 -0 -0 -0 -0 -0 -0 -0 -0 -0 -396 -315 -188 -0 -0 -0 -43 -47 -67 -50 -0 -7 -12 -59 -26
-0 -0 -0 -0 -0 -0 -0 -0 -0 -0 -0 -0 -0 -0 -0 -0 -0 -0 -0 -0 -0 -0 -0 -0 -0 -0 -0 -0 -0 -0 -284 -0 -0 -1 -0 -56 -9 -0 -0 -0 -0 -62 -40 -33
-0 -0 -0 -0 -0 -0 -0 -0 -0 -0 -0 -0 -0 -0 -0 -0 -0 -0 -0 -0 -0 -0 -0 -0 -0 -0 -0 -0 -0 -0 -0 -0 -0 -150 -0 -0 -0 -0 -0 -0 -0 -42 -59 -31
-0 -0 -0 -0 -0 -0 -0 -0 -0 -0 -0 -0 -0 -0 -0 -0 -0 -0 -0 -0 -0 -0 -0 -0 -0 -0 -0 -0 -0 -0 -0 -0 -0 -0 -0 -0 -0 -0 -0 -0 -0 -0 -50 -41
-0 -0 -0 -0 -0 -0 -0 -0 -0 -0 -0 -0 -0 -0 -0 -0 -0 -0 -0 -0 -0 -0 -0 -0 -0 -0 -0 -0 -0 -0 -0 -0 -0 -0 -0 -0 -0 -0 -0 -0 -67 -0 -0 -0
-0 -0 -0 -0 -0 -0 -0 -0 -0 -0 -0 -0 -0 -0 -0 -0 -0 -0 -0 -0 -0 -0 -0 -0 -0 -0 -0 -0 -0 -0 -0 -0 -0 -0 -0 -0 -0 -0 -0 -0 -0 -0 -0 -0
-0 -0 -0 -0 -0 -0 -0 -0 -0 -0 -0 -0 -0 -0 -0 -0 -0 -0 -0 -0 -0 -0 -0 -0 -0 -0 -0 -0 -0 -0 -0 -0 -0 -0 -0 -14 -33 -55 -61 -0 -115 -0 -0 -0
-0 -0 -0 -0 -0 -0 -0 -0 -0 -0 -0 -0 -0 -0 -0 -0 -0 -0 -0 -0 -0 -0 -0 -0 -0 -0 -0 -0 -0 -0 -0 -0 -0 -0 -0 -18 -31 -43 -55 -0 -0 -115 -0 -43
-0 -0 -0 -0 -0 -0 -0 -0 -0 -0 -0 -0 -0 -0 -0 -0 -0 -0 -0 -0 -0 -0 -0 -0 -0 -0 -0 -0 -0 -0 -0 -0 -0 -0 -0 -6 -24 -44 -45 -0 -0 -0 -0 -0
-0 -0 -0 -0 -0 -0 -0 -0 -0 -0 -0 -0 -0 -0 -0 -0 -0 -0 -0 -0 -0 -0 -0 -0 -0 -0 -0 -0 -0 -0 -0 -0 -0 -0 -0 -37 -2 -30 -48 -53 -0 -79 -54 -58
-0 -0 -0 -0 -0 -0 -0 -0 -0 -0 -0 -0 -0 -0 -0 -0 -0 -0 -71 -0 -0 -0 -0 -0 -0 -0 -0 -0 -0 -0 -0 -0 -0 -0 -0 -0 -50 -0 -15 -0 -0 -11 -76 -58
-0 -0 -0 -0 -0 -0 -0 -0 -0 -0 -0 -0 -0 -0 -0 -5 -0 -133 -228 -0 -0 -0 -0 -0 -0 -0 -0 -0 -0 -0 -0 -0 -0 -0 -0 -0 -0 -7 -43 -4 -25 -0 -99 -72
-0 -0 -0 -0 -0 -0 -0 -0 -0 -0 -0 -0 -0 -0 -0 -0 -54 -185 -241 -0 -0 -0 -0 -0 -0 -0 -0 -0 -0 -0 -0 -0 -0 -0 -0 -0 -0 -8 -25 -0 -0 -81 -66 -68
-0 -0 -0 -0 -0 -0 -0 -0 -0 -0 -0 -0 -0 -0 -0 -0 -74 -122 -0 -0 -0 -0 -0 -0 -0 -0 -0 -0 -0 -0 -0 -0 -0 -0 -0 -0 -0 -65 -12 -0 -0 -38 -0 -0
-0 -0 -0 -0 -0 -0 -0 -0 -0 -0 -0 -0 -0 -0 -0 -0 -0 -69 -61 -0 -0 -0 -0 -0 -0 -0 -0 -0 -0 -0 -0 -0 -0 -0 -0 -0 -0 -0 -0 -0 -0 -0 -0 -0
-0 -0 -0 -0 -0 -0 -0 -0 -0 -0 -0 -0 -0 -0 -0 -0 -0 -0 -0 -0 -0 -0 -0 -0 -0 -0 -0 -0 -0 -0 -0 -0 -0 -0 -0 -0 -0 -0 -0 -0 -0 -0 -0 -0
-0 -0 -0 -0 -0 -0 -0 -7 -0 -0 -0 -0 -0 -0 -0 -0 -0 -0 -0 -0 -0 -0 -0 -0 -0 -0 -0 -0 -0 -0 -0 -0 -0 -0 -0 -0 -0 -212 -224 -0 -0 -0 -0 -0
-1 -0 -0 -0 -0 -6 -0 -153 -0 -0 -0 -0 -0 -0 -0 -0 -0 -0 -0 -0 -0 -0 -0 -0 -0 -0 -0 -0 -0 -0 -0 -0 -0 -0 -0 -0 -0 -0 -247 -0 -0 -0 -0 -0
-0 -0 -0 -0 -43 -37 -0 -0 -177 -0 -0 -0 -0 -0 -0 -0 -0 -0 -0 -0 -191 -0 -0 -0 -0 -0 -0 -0 -0 -0 -0 -0 -0 -0 -0 -0 -0 -0 -0 -0 -0 -0 -0 -0
-0 -0 -0 -0 -0 -0 -0 -0 -0 -0 -0 -0 -0 -0 -0 -0 -0 -0 -0 -0 -273 -318 -0 -0 -0 -0 -0 -0 -0 -0 -0 -0 -0 -0 -0 -0 -0 -0 -0 -0 -0 -0 -0 -0
-0 -0 -0 -0 -0 -0 -0 -0 -0 -0 -0 -0 -0 -0 -0 -0 -0 -0 -0 -0 -132 -244 -43 -0 -0 -0 -0 -0 -0 -0 -0 -0 -0 -0 -0 -0 -0 -0 -0 -66 -66 -365 -374 -19
-0 -0 -0 -0 -0 -0 -0 -0 -0 -0 -0 -0 -0 -0 -0 -0 -0 -0 -0 -0 -111 -213 -266 -155 -0 -0 -0 -0 -0 -0 -0 -0 -0 -0 -0 -0 -0 -0 -0 -423 -438 -428 -450 -135
-0 -0 -0 -0 -0 -0 -0 -0 -0 -0 -0 -0 -0 -0 -0 -0 -0 -0 -0 -0 -72 -191 -229 -217 -212 -0 -0 -0 -0 -0 -0 -0 -0 -0 -0 -0 -0 -0 -0 -150 -0 -0 -0 -0
Wind_Speed
26 32 32 29 23 37 39 33 34 41 40 33 33 29 32 30 17 12 13 12 10 6 2 2 5 4 1 4 6 7 8 11 12 15 17 16 16 17 12 10 8 7 7 7
26 37 27 32 43 43 41 38 42 43 39 29 33 35 39 25 11 12 11 12 10 5 3 1 6 3 2 3 5 7 8 10 12 15 14 15 17 16 16 14 9 8 9 7
25 26 26 40 44 42 48 34 36 32 41 41 40 38 30 29 8 4 8 7 5 3 2 5 7 4 3 4 5 6 8 11 13 15 16 17 20 19 20 15 11 12 14 12
47 42 25 31 36 20 34 16 31 40 40 20 17 32 27 25 22 17 7 8 6 3 7 6 6 5 5 5 6 7 8 11 12 13 15 16 18 20 20 17 16 16 16 14
49 23 37 29 36 22 40 18 33 41 30 29 38 28 34 29 33 22 13 5 2 11 10 6 9 8 7 7 8 8 9 11 11 11 13 16 20 20 20 20 19 17 16 14
29 32 36 54 43 35 43 36 38 40 33 27 21 22 38 32 19 5 4 5 10 9 7 6 8 10 8 8 9 9 10 11 10 10 12 17 20 21 22 20 20 17 15 15
27 28 44 29 34 47 37 19 19 20 13 21 22 10 33 17 6 3 5 9 9 8 9 10 10 8 8 8 9 9 10 10 10 11 12 15 16 20 21 20 18 17 17 17
29 35 34 24 22 22 29 19 15 15 20 21 19 29 29 21 11 10 10 11 9 9 9 10 11 9 9 11 10 10 11 12 12 13 13 14 16 18 20 19 18 19 19 20
26 38 31 42 38 25 35 40 40 40 29 21 27 32 32 32 2 9 12 11 10 10 11 13 13 12 12 12 12 11 13 13 13 14 14 14 17 18 19 20 21 21 22 23
31 33 41 31 33 54 54 26 33 27 18 14 31 30 31 14 10 14 14 10 10 10 11 13 14 12 13 14 14 13 14 15 15 15 15 15 17 19 19 21 21 22 22 23
45 35 22 35 27 38 34 36 33 32 28 26 39 37 22 9 13 16 12 10 10 12 13 14 15 15 15 15 15 15 16 17 17 15 16 17 18 19 20 19 20 22 22 23
58 37 44 47 29 37 39 35 23 41 31 29 33 38 24 16 16 16 13 12 12 13 15 15 16 16 16 16 16 16 18 18 18 18 18 19 19 20 21 20 21 22 24 25
39 53 47 41 38 40 40 43 34 36 28 28 30 37 25 6 14 17 15 14 13 14 15 16 16 17 18 17 17 18 19 19 18 19 20 21 20 21 22 21 23 25 26 27
33 42 47 43 38 32 37 29 28 24 26 20 16 29 20 3 15 16 16 15 14 16 16 16 17 18 19 19 19 19 20 20 20 20 20 21 21 22 23 24 25 28 29 29
27 46 41 63 49 32 40 47 24 25 22 17 19 14 19 15 15 17 18 15 14 15 16 16 18 19 20 20 20 20 20 21 21 21 21 22 23 24 25 26 27 28 29 28
28 40 42 49 60 56 47 45 37 33 30 25 19 17 11 19 12 12 17 15 16 14 16 17 19 20 22 21 21 22 21 22 23 22 23 24 24 25 25 28 28 30 28 26
33 33 39 53 46 50 56 53 40 29 29 25 26 24 10 9 16 18 16 18 17 15 17 17 20 22 23 22 22 22 22 23 24 23 23 25 25 27 28 28 28 29 28 28
41 36 35 46 39 46 42 44 43 30 25 23 29 21 13 15 14 17 19 20 20 18 17 19 20 21 23 22 23 22 22 23 24 24 25 27 27 28 28 28 28 27 28 27
42 38 37 40 43 36 34 33 35 35 37 27 20 23 16 15 15 8 20 22 22 20 18 20 21 21 22 23 23 22 21 23 24 25 26 27 28 28 26 26 27 28 28 27
30 35 35 33 39 44 31 30 25 21 48 31 24 18 21 17 16 10 18 23 21 21 19 18 19 18 22 24 23 22 22 21 24 25 27 27 28 28 27 26 27 28 27 27
28 32 44 38 34 27 28 21 18 30 35 33 27 23 21 19 11 9 17 18 20 23 19 17 16 21 23 21 22 22 22 23 23 26 27 27 27 28 28 28 27 26 26 26
27 31 35 33 32 31 22 24 21 26 29 27 32 26 16 17 15 11 18 19 20 21 19 18 19 19 17 20 22 21 23 24 21 23 26 27 26 26 27 27 26 26 25 26
25 23 31 26 24 19 16 14 17 19 18 19 22 31 16 13 12 13 13 16 19 19 22 20 18 19 19 20 22 22 22 23 22 19 23 27 26 25 26 27 28 27 27 28
21 19 27 27 24 23 18 16 19 17 16 18 19 23 22 15 14 14 12 11 16 18 20 18 15 18 21 21 23 23 21 23 23 23 20 22 25 26 25 26 27 27 27 26
22 20 24 27 25 22 19 19 19 19 17 14 16 17 20 19 16 15 13 13 16 19 18 17 19 18 20 22 22 22 20 22 23 24 22 19 21 23 24 25 25 26 27 25
23 24 23 29 28 29 31 26 22 20 18 18 20 22 22 22 20 14 13 15 17 17 17 19 18 17 17 21 19 20 21 20 20 21 21 20 19 15 17 18 19 21 26 25
Wind_Direction
243 251 243 221 234 261 265 276 278 240 240 283 241 243 250 247 235 209 208 221 242 294 347 223 173 167 35 16 20 25 27 24 20 13 9 16 20 20 29 28 32 38 45 53
250 218 225 255 248 253 260 267 234 247 239 289 240 249 261 250 220 208 210 225 237 313 335 85 153 146 66 34 39 31 30 26 20 15 18 18 18 23 18 20 35 48 42 54
222 260 244 244 246 251 242 213 224 224 250 267 273 254 249 280 323 263 223 249 299 263 198 152 155 142 66 64 52 44 40 28 21 23 18 22 19 24 20 36 53 39 36 48
246 243 247 248 253 243 213 227 217 240 258 231 299 289 302 302 303 323 247 324 300 236 159 147 147 133 98 75 65 66 45 36 30 34 26 30 31 28 34 43 44 36 40 59
229 233 205 210 207 212 216 260 217 234 217 221 239 296 281 290 261 235 234 323 85 136 143 142 141 123 100 71 71 66 49 34 47 45 40 34 27 35 38 39 38 39 47 63
223 257 251 225 249 254 230 254 251 248 219 219 215 294 254 247 231 205 23 90 123 126 110 100 110 114 92 76 75 68 48 47 55 60 53 35 33 34 35 39 42 56 66 85
251 216 242 253 226 235 243 240 260 271 235 250 286 274 239 254 191 81 95 139 118 97 112 120 124 110 89 87 83 66 57 68 76 62 73 48 50 40 38 47 52 62 74 93
244 251 200 220 207 229 196 206 217 262 269 285 281 271 236 230 206 188 136 125 99 97 109 117 121 110 98 102 92 74 81 96 101 87 81 65 58 49 48 55 67 70 83 101
241 247 249 237 233 221 238 196 205 242 269 284 274 260 260 266 328 126 113 103 95 100 109 117 121 112 105 104 102 86 104 115 102 88 76 79 69 67 55 65 77 78 97 119
247 248 236 245 238 217 205 246 244 256 211 254 262 261 252 330 111 127 124 99 90 90 102 113 119 112 107 109 104 97 110 119 102 98 87 101 86 76 81 89 85 99 113 135
236 242 250 234 221 189 231 237 244 255 256 256 243 238 281 177 156 148 131 106 103 111 116 118 119 118 115 112 105 101 119 122 110 112 110 108 91 83 86 98 104 117 117 148
225 240 239 228 242 238 235 238 233 228 250 253 255 233 276 201 165 147 128 116 112 115 118 119 121 119 120 118 112 109 120 121 114 112 115 105 99 92 92 104 113 126 122 140
233 231 234 241 241 238 233 232 238 244 252 252 250 232 279 327 140 142 131 124 113 114 118 121 119 123 127 125 120 119 127 128 118 117 111 108 104 94 98 107 114 119 131 138
246 233 228 233 236 236 235 229 232 237 244 250 203 253 267 208 137 138 137 128 120 124 123 126 125 128 131 131 127 126 131 133 122 118 107 108 114 107 102 108 116 120 131 130
251 231 230 221 230 239 236 231 214 200 194 226 250 195 189 161 152 155 146 132 123 125 127 131 135 134 135 135 132 132 131 128 123 116 106 120 127 120 111 112 126 137 131 139
257 235 231 233 223 226 234 237 234 236 239 247 248 249 256 176 169 150 151 140 136 136 138 138 142 139 141 139 137 136 131 128 125 120 119 127 132 128 129 122 129 124 131 138
248 237 231 230 231 232 235 228 234 225 235 238 245 255 234 189 173 167 161 157 151 144 145 145 149 147 145 143 139 138 134 130 128 124 126 131 143 133 131 132 127 121 115 122
239 237 238 229 229 235 241 237 239 222 225 233 248 253 221 195 191 186 177 167 159 150 148 151 149 148 147 143 142 138 131 131 131 129 136 144 150 137 131 139 137 132 130 128
234 233 232 228 226 242 242 238 236 230 238 235 228 252 235 250 254 236 182 173 165 159 153 152 151 151 145 144 143 139 133 133 135 136 139 144 149 142 127 122 128 135 135 134
227 229 228 236 228 232 233 248 239 238 239 240 240 239 244 240 238 229 176 172 166 158 151 148 150 149 149 148 143 140 141 136 140 142 143 143 147 145 141 131 129 141 142 138
233 228 225 233 234 236 241 265 236 235 244 253 240 243 238 223 221 213 172 174 171 163 155 150 146 152 155 148 146 146 144 148 144 147 147 146 143 148 152 148 144 136 143 142
234 230 224 232 230 228 272 246 242 261 265 271 244 240 227 224 237 202 182 179 175 169 157 153 153 154 152 151 149 148 152 151 143 143 149 151 148 145 150 150 150 147 138 145
230 236 230 230 231 257 263 243 262 276 282 278 264 241 230 228 215 207 193 195 186 175 167 159 158 155 154 156 154 151 153 150 148 142 147 155 153 148 149 149 155 156 158 158
256 251 231 232 234 256 250 269 274 284 292 283 287 260 235 216 215 224 216 200 186 178 169 163 161 157 159 160 158 157 149 151 151 153 149 151 153 153 150 152 154 159 159 159
255 247 243 234 243 254 237 275 284 279 290 301 302 286 256 237 229 228 230 210 191 178 173 164 163 161 161 163 161 156 154 152 153 155 152 150 152 152 152 154 154 159 166 161
247 241 234 235 255 249 253 265 278 282 289 296 292 287 275 266 238 221 206 196 188 185 175 168 169 168 163 166 167 162 160 160 157 156 154 154 154 151 150 147 149 240 171 169